Date String (YYYY-MM-DD hh:mm:ss) UTC,Instrument flags,absolute air pressure of the measurement (hPa),sample flow rate (lpm),inlet stack bypass flow (lpm),air temperature of the measurement (°C),ambient temperature measured by the external sensor (°C),aerosol sample conditioner tube jacket temperature (°C),OPC LED temperature (°C),internal box temperature (°C),relative humidity of the measurement (%),span deviation,mass concentration of particles derived from Lorenz-Mie calculation of OPC scattering (μg/m³),mass concentration of particles derived from Lorenz-Mie calculation of OPC scattering (μg/m³),mass concentration of particles derived from Lorenz-Mie calculation of OPC scattering (μg/m³)
DateTimeUTC,F1_M11,P_M11,Q1_M11,Q2_M11,T1_M11,T2_M11,T3_M11,T4_M11,T5_M11,U1_M11,ZSPAN_M11,X2_M11,X0_M11,X1_M11
2023-10-02 07:00:00,SystemResetWarning,0829.0,4.99,000.00,028.3,027.0,000.0,036.8,030.1,17.6,0000.0,0004.58,0012.55,0003.40
2023-10-02 07:01:00,SystemResetWarning,0829.0,5.00,000.00,028.3,027.0,000.0,036.8,030.1,17.6,0000.0,0004.55,0012.76,0003.40
2023-10-02 07:02:00,SystemResetWarning,0829.0,4.99,000.00,028.3,027.1,000.0,036.8,030.1,17.6,0000.0,0004.52,0013.00,0003.38
2023-10-02 07:03:00,SystemResetWarning,0829.0,5.00,000.00,028.4,027.2,000.0,036.8,030.2,17.5,0000.0,0004.42,0013.34,0003.37
2023-10-02 07:04:00,SystemResetWarning,0829.0,5.01,000.00,028.4,027.2,000.0,036.8,030.2,17.5,0000.0,0004.36,0013.88,0003.37
2023-10-02 07:05:00,SystemResetWarning,0829.0,5.00,000.00,028.4,027.3,000.0,036.8,030.2,17.5,0000.0,0004.35,0013.88,0003.36
2023-10-02 07:06:00,SystemResetWarning,0829.0,5.01,000.00,028.5,027.3,000.0,036.8,030.2,17.4,0000.0,0004.36,0013.60,0003.36
2023-10-02 07:07:00,SystemResetWarning,0829.1,5.00,000.00,028.5,027.3,000.0,036.8,030.3,17.4,0000.0,0004.42,0013.47,0003.36
2023-10-02 07:08:00,SystemResetWarning,0829.1,4.99,000.00,028.5,027.3,000.0,036.9,030.3,17.4,0000.0,0004.40,0013.41,0003.36
2023-10-02 07:09:00,SystemResetWarning,0829.1,4.99,000.00,028.5,027.4,000.0,036.9,030.3,17.3,0000.0,0004.35,0012.94,0003.36
2023-10-02 07:10:00,SystemResetWarning,0829.1,4.99,000.00,028.5,027.4,000.0,036.9,030.3,17.3,0000.0,0004.37,0013.10,0003.36
2023-10-02 07:11:00,SystemResetWarning,0829.0,5.01,000.00,028.5,027.4,000.0,036.9,030.3,17.3,0000.0,0004.33,0012.30,0003.35
2023-10-02 07:12:00,SystemResetWarning,0829.0,5.01,000.00,028.6,027.4,000.0,036.9,030.3,17.2,0000.0,0004.34,0011.95,0003.34
2023-10-02 07:13:00,SystemResetWarning,0829.0,5.00,000.00,028.6,027.4,000.0,036.9,030.3,17.2,0000.0,0004.36,0011.60,0003.34
2023-10-02 07:14:00,SystemResetWarning,0829.1,5.00,000.00,028.6,027.4,000.0,036.9,030.3,17.1,0000.0,0004.37,0011.00,0003.33
2023-10-02 07:15:00,SystemResetWarning,0829.1,4.99,000.00,028.6,027.4,000.0,036.9,030.3,17.1,0000.0,0004.39,0010.44,0003.33
2023-10-02 07:16:00,SystemResetWarning,0829.1,5.00,000.00,028.6,027.4,000.0,036.9,030.4,17.2,0000.0,0004.39,0011.56,0003.33
2023-10-02 07:17:00,SystemResetWarning,0829.1,4.99,000.00,028.6,027.4,000.0,036.9,030.4,17.1,0000.0,0004.38,0011.58,0003.33
2023-10-02 07:18:00,SystemResetWarning,0829.1,5.00,000.00,028.6,027.4,000.0,037.0,030.4,17.1,0000.0,0004.36,0011.95,0003.33
2023-10-02 07:19:00,SystemResetWarning,0829.2,5.01,000.00,028.6,027.4,000.0,037.0,030.4,17.1,0000.0,0004.37,0012.19,0003.32
2023-10-02 07:20:00,SystemResetWarning,0829.2,5.00,000.00,028.7,027.4,000.0,037.0,030.4,17.1,0000.0,0004.37,0011.92,0003.32
2023-10-02 07:21:00,SystemResetWarning,0829.2,5.01,000.00,028.7,027.5,000.0,037.0,030.4,17.1,0000.0,0004.35,0011.51,0003.32
2023-10-02 07:22:00,SystemResetWarning,0829.2,5.00,000.00,028.7,027.5,000.0,037.0,030.4,17.2,0000.0,0004.33,0011.53,0003.32
2023-10-02 07:23:00,SystemResetWarning,0829.3,4.99,000.00,028.7,027.5,000.0,037.1,030.5,17.3,0000.0,0004.33,0011.98,0003.32
2023-10-02 07:24:00,SystemResetWarning,0829.3,4.99,000.00,028.7,027.6,000.0,037.1,030.5,17.4,0000.0,0004.31,0013.03,0003.32
2023-10-02 07:25:00,SystemResetWarning,0829.3,4.99,000.00,028.8,027.5,000.0,037.1,030.5,17.5,0000.0,0004.29,0013.72,0003.32
2023-10-02 07:26:00,SystemResetWarning,0829.3,5.00,000.00,028.8,026.1,000.0,037.1,030.4,17.5,0000.0,0004.31,0014.55,0003.33
2023-10-02 07:27:00,SystemResetWarning,0829.2,5.00,000.00,028.7,024.6,000.0,037.0,030.2,17.6,0000.0,0004.29,0014.06,0003.33
2023-10-02 07:28:00,SystemResetWarning,0829.2,5.01,000.00,028.6,024.4,000.0,037.0,030.1,17.7,0000.0,0004.29,0014.31,0003.33
2023-10-02 07:29:00,SystemResetWarning,0829.1,5.01,000.00,028.5,024.6,000.0,037.0,029.9,17.9,0000.0,0004.29,0014.34,0003.33
2023-10-02 07:30:00,SystemResetWarning,0829.1,5.00,000.00,028.4,025.0,000.0,037.0,029.8,17.9,0000.0,0004.26,0013.66,0003.32
2023-10-02 07:31:00,SystemResetWarning,0829.2,5.00,000.00,028.3,025.4,000.0,037.0,029.9,18.0,0000.0,0004.26,0014.04,0003.32
2023-10-02 07:32:00,SystemResetWarning,0829.2,5.01,000.00,028.3,025.7,000.0,036.9,029.9,18.2,0000.0,0004.28,0013.87,0003.33
2023-10-02 07:33:00,SystemResetWarning,0829.3,4.99,000.00,028.3,026.0,000.0,036.9,029.9,18.3,0000.0,0004.31,0014.54,0003.34
2023-10-02 07:34:00,SystemResetWarning,0829.3,5.00,000.00,028.3,026.2,000.0,036.9,030.0,18.2,0000.0,0004.36,0014.32,0003.36
2023-10-02 07:35:00,SystemResetWarning,0829.4,5.00,000.00,028.3,026.5,000.0,036.9,030.0,18.2,0000.0,0004.37,0013.40,0003.37
2023-10-02 07:36:00,SystemResetWarning,0829.4,5.00,000.00,028.3,026.6,000.0,036.9,030.0,18.3,0000.0,0004.38,0013.91,0003.37
2023-10-02 07:37:00,SystemResetWarning,0829.3,4.99,000.00,028.3,026.8,000.0,036.9,030.1,18.2,0000.0,0004.34,0012.94,0003.37
2023-10-02 07:38:00,SystemResetWarning,0829.3,4.99,000.00,028.4,026.9,000.0,036.9,030.1,18.2,0000.0,0004.33,0012.74,0003.36
2023-10-02 07:39:00,SystemResetWarning,0829.4,5.00,000.00,028.4,027.0,000.0,036.9,030.1,18.2,0000.0,0004.35,0012.52,0003.36
2023-10-02 07:40:00,SystemResetWarning,0829.3,5.00,000.00,028.4,027.1,000.0,036.9,030.2,18.2,0000.0,0004.38,0012.34,0003.37
2023-10-02 07:41:00,SystemResetWarning,0829.3,5.00,000.00,028.4,027.1,000.0,036.9,030.2,18.2,0000.0,0004.39,0012.56,0003.38
2023-10-02 07:42:00,SystemResetWarning,0829.4,5.01,000.00,028.4,027.2,000.0,036.9,030.2,18.1,0000.0,0004.42,0012.54,0003.39
2023-10-02 07:43:00,SystemResetWarning,0829.3,5.00,000.00,028.5,027.2,000.0,036.9,030.2,18.1,0000.0,0004.43,0012.54,0003.39
2023-10-02 07:44:00,SystemResetWarning,0829.3,4.99,000.00,028.5,027.3,000.0,036.9,030.3,18.1,0000.0,0004.45,0011.82,0003.39
2023-10-02 07:45:00,SystemResetWarning,0829.4,5.00,000.00,028.5,027.3,000.0,036.9,030.3,18.0,0000.0,0004.42,0011.50,0003.38
2023-10-02 07:46:00,SystemResetWarning,0829.3,4.99,000.00,028.6,027.4,000.0,036.9,030.3,18.1,0000.0,0004.37,0011.47,0003.37
2023-10-02 07:47:00,SystemResetWarning,0829.4,5.00,000.00,028.6,027.4,000.0,036.9,030.3,18.2,0000.0,0004.39,0010.37,0003.38
2023-10-02 07:48:00,SystemResetWarning,0829.4,5.00,000.00,028.6,027.4,000.0,036.9,030.4,18.1,0000.0,0004.44,0010.91,0003.39
2023-10-02 07:49:00,SystemResetWarning,0829.4,5.00,000.00,028.6,027.4,000.0,036.9,030.4,18.0,0000.0,0004.46,0010.59,0003.40
2023-10-02 07:50:00,SystemResetWarning,0829.4,5.01,000.00,028.6,027.4,000.0,037.0,030.4,18.0,0000.0,0004.42,0010.12,0003.39
2023-10-02 07:51:00,SystemResetWarning,0829.5,5.01,000.00,028.6,027.4,000.0,037.0,030.4,17.9,0000.0,0004.39,0010.52,0003.38
2023-10-02 07:52:00,SystemResetWarning,0829.5,5.01,000.00,028.7,027.5,000.0,037.0,030.4,17.9,0000.0,0004.37,0010.60,0003.38
2023-10-02 07:53:00,SystemResetWarning,0829.5,4.99,000.00,028.7,027.5,000.0,037.0,030.4,17.9,0000.0,0004.37,0010.54,0003.38
2023-10-02 07:54:00,SystemResetWarning,0829.4,4.99,000.00,028.7,027.5,000.0,037.0,030.4,17.8,0000.0,0004.33,0010.61,0003.38
2023-10-02 07:55:00,SystemResetWarning,0829.5,4.99,000.00,028.7,027.5,000.0,037.0,030.5,17.8,0000.0,0004.28,0010.78,0003.39
2023-10-02 07:56:00,SystemResetWarning,0829.4,4.99,000.00,028.7,027.5,000.0,037.0,030.5,17.8,0000.0,0004.28,0010.78,0003.39
2023-10-02 07:57:00,SystemResetWarning,0829.4,5.01,000.00,028.7,027.5,000.0,037.0,030.5,17.8,0000.0,0004.31,0010.66,0003.39
2023-10-02 07:58:00,SystemResetWarning,0829.4,5.01,000.00,028.7,027.5,000.0,037.1,030.5,17.8,0000.0,0004.36,0010.83,0003.39
2023-10-02 07:59:00,SystemResetWarning,0829.5,5.00,000.00,028.8,027.5,000.0,037.1,030.5,17.8,0000.0,0004.34,0010.45,0003.39
